• In Hungary
  • List of Countries
  • For 7 days
  • Water Temperature
  • Satellite Maps
  • Weather Map
  • News
  • Weather Widgets
  • user-avatar
    Login

    Hourly Weather Santa Cruz de la Sierra

    Today, 22 October, Sunday

    Time Temperature Precipitation Wind Pressure Humidity
    00:00 +25°C° 2.8 mm 2 mps 723 mmHg 88%
    01:00 +24°C° 2.8 mm 2 mps 723 mmHg 91%
    02:00 +24°C° 0 mm 2 mps 724 mmHg 92%
    03:00 +24°C° 2.2 mm 3 mps 724 mmHg 91%
    04:00 +22°C° 2.2 mm 4 mps 725 mmHg 91%
    05:00 +22°C° 2.2 mm 5 mps 725 mmHg 91%
    06:00 +22°C° 0.6 mm 5 mps 726 mmHg 90%
    07:00 +21°C° 0.6 mm 5 mps 727 mmHg 90%
    08:00 +21°C° 0.6 mm 4 mps 728 mmHg 89%
    09:00 +21°C° 0.5 mm 4 mps 728 mmHg 87%
    10:00 +21°C° 0.5 mm 4 mps 728 mmHg 85%
    11:00 +21°C° 0.5 mm 4 mps 729 mmHg 83%
    12:00 +22°C° 0.1 mm 4 mps 728 mmHg 76%
    13:00 +23°C° 0.1 mm 4 mps 728 mmHg 69%
    14:00 +25°C° 0.1 mm 4 mps 727 mmHg 63%
    15:00 +26°C° 0 mm 4 mps 726 mmHg 60%
    16:00 +26°C° 0 mm 3 mps 726 mmHg 57%
    17:00 +27°C° 0 mm 3 mps 725 mmHg 54%
    18:00 +25°C° 0 mm 3 mps 725 mmHg 59%
    19:00 +24°C° 0 mm 2 mps 725 mmHg 63%
    20:00 +23°C° 0 mm 1 mps 725 mmHg 67%
    21:00 +22°C° 0 mm 1 mps 726 mmHg 67%
    22:00 +22°C° 0 mm 1 mps 726 mmHg 67%
    23:00 +22°C° 0 mm 1 mps 726 mmHg 67%

    Tomorrow, 23 October, Monday

    Time Temperature Precipitation Wind Pressure Humidity
    00:00 +22°C° 0 mm 1 mps 726 mmHg 67%
    01:00 +22°C° 0 mm 1 mps 725 mmHg 66%
    02:00 +21°C° 0 mm 1 mps 725 mmHg 66%
    03:00 +21°C° 0 mm 1 mps 725 mmHg 65%
    04:00 +21°C° 0 mm 1 mps 725 mmHg 64%
    05:00 +21°C° 0 mm 1 mps 725 mmHg 63%
    06:00 +21°C° 0 mm 2 mps 725 mmHg 58%
    07:00 +24°C° 0 mm 2 mps 725 mmHg 52%
    08:00 +25°C° 0 mm 3 mps 726 mmHg 47%
    09:00 +27°C° 0 mm 3 mps 726 mmHg 43%
    10:00 +29°C° 0 mm 2 mps 725 mmHg 39%
    11:00 +30°C° 0 mm 2 mps 725 mmHg 35%
    12:00 +32°C° 0 mm 2 mps 724 mmHg 35%
    13:00 +33°C° 0 mm 1 mps 724 mmHg 34%
    14:00 +34°C° 0 mm 1 mps 723 mmHg 33%
    15:00 +33°C° 0 mm 1 mps 722 mmHg 36%
    16:00 +32°C° 0 mm 1 mps 721 mmHg 38%
    17:00 +31°C° 0 mm 1 mps 721 mmHg 41%
    18:00 +30°C° 0 mm 1 mps 721 mmHg 46%
    19:00 +28°C° 0 mm 1 mps 722 mmHg 50%
    20:00 +26°C° 0 mm 1 mps 722 mmHg 55%
    21:00 +26°C° 0 mm 1 mps 722 mmHg 56%
    22:00 +25°C° 0 mm 1 mps 722 mmHg 57%
    23:00 +25°C° 0 mm 1 mps 722 mmHg 58%

    Day after tomorrow, 24 October, Tuesday

    Time Temperature Precipitation Wind Pressure Humidity
    00:00 +24°C° 0 mm 1 mps 722 mmHg 59%
    01:00 +24°C° 0 mm 1 mps 721 mmHg 61%
    02:00 +24°C° 0 mm 1 mps 721 mmHg 62%
    03:00 +24°C° 0 mm 1 mps 721 mmHg 64%
    04:00 +23°C° 0 mm 1 mps 721 mmHg 66%
    05:00 +23°C° 0 mm 1 mps 721 mmHg 68%
    06:00 +25°C° 0 mm 2 mps 721 mmHg 63%
    07:00 +27°C° 0 mm 2 mps 722 mmHg 59%
    08:00 +28°C° 0 mm 3 mps 722 mmHg 55%
    09:00 +30°C° 0 mm 3 mps 722 mmHg 49%
    10:00 +34°C° 0 mm 4 mps 722 mmHg 44%
    11:00 +36°C° 0 mm 4 mps 722 mmHg 39%
    12:00 +36°C° 0 mm 5 mps 721 mmHg 37%
    13:00 +37°C° 0 mm 5 mps 720 mmHg 35%
    14:00 +39°C° 0 mm 5 mps 719 mmHg 33%
    15:00 +38°C° 0 mm 4 mps 719 mmHg 34%
    16:00 +37°C° 0 mm 4 mps 718 mmHg 35%
    17:00 +37°C° 0 mm 3 mps 718 mmHg 36%
    18:00 +35°C° 0 mm 3 mps 718 mmHg 41%
    19:00 +32°C° 0 mm 2 mps 719 mmHg 47%
    20:00 +30°C° 0 mm 2 mps 720 mmHg 52%
    21:00 +29°C° 0 mm 2 mps 720 mmHg 53%
    22:00 +29°C° 0 mm 2 mps 720 mmHg 54%
    23:00 +29°C° 0 mm 2 mps 721 mmHg 55%

    25 October, Wednesday

    Time Temperature Precipitation Wind Pressure Humidity
    00:00 +29°C° 0 mm 2 mps 720 mmHg 56%
    01:00 +28°C° 0 mm 2 mps 720 mmHg 57%
    02:00 +28°C° 0 mm 3 mps 720 mmHg 59%
    03:00 +28°C° 0 mm 3 mps 720 mmHg 60%
    04:00 +28°C° 0 mm 3 mps 720 mmHg 62%
    05:00 +28°C° 0 mm 3 mps 720 mmHg 63%
    06:00 +29°C° 0 mm 4 mps 721 mmHg 59%
    07:00 +30°C° 0 mm 4 mps 721 mmHg 55%
    08:00 +33°C° 0 mm 5 mps 722 mmHg 51%
    09:00 +35°C° 0 mm 5 mps 721 mmHg 46%
    10:00 +36°C° 0 mm 6 mps 721 mmHg 41%
    11:00 +39°C° 0 mm 6 mps 721 mmHg 37%
    12:00 +40°C° 0 mm 6 mps 720 mmHg 35%
    13:00 +40°C° 0 mm 6 mps 719 mmHg 33%
    14:00 +41°C° 0 mm 6 mps 718 mmHg 31%
    15:00 +41°C° 0 mm 6 mps 717 mmHg 31%
    16:00 +40°C° 0 mm 5 mps 717 mmHg 32%
    17:00 +40°C° 0 mm 5 mps 717 mmHg 33%
    18:00 +37°C° 0 mm 5 mps 717 mmHg 35%
    19:00 +36°C° 0 mm 4 mps 718 mmHg 38%
    20:00 +34°C° 0 mm 4 mps 718 mmHg 40%
    21:00 +34°C° 0 mm 4 mps 718 mmHg 42%
    22:00 +33°C° 0 mm 5 mps 718 mmHg 44%
    23:00 +33°C° 0 mm 5 mps 718 mmHg 45%

    26 October, Thursday

    Time Temperature Precipitation Wind Pressure Humidity
    00:00 +32°C° 0 mm 5 mps 718 mmHg 47%
    01:00 +32°C° 0 mm 5 mps 717 mmHg 49%
    02:00 +32°C° 0 mm 5 mps 717 mmHg 50%
    03:00 +30°C° 0 mm 5 mps 717 mmHg 52%
    04:00 +30°C° 0 mm 5 mps 718 mmHg 53%
    05:00 +30°C° 0 mm 5 mps 718 mmHg 54%
    06:00 +32°C° 0 mm 6 mps 719 mmHg 52%
    07:00 +33°C° 0 mm 6 mps 719 mmHg 50%
    08:00 +34°C° 0 mm 7 mps 720 mmHg 47%
    09:00 +35°C° 0 mm 7 mps 720 mmHg 42%
    10:00 +38°C° 0 mm 6 mps 720 mmHg 37%
    11:00 +40°C° 0 mm 6 mps 720 mmHg 32%
    12:00 +41°C° 0 mm 6 mps 719 mmHg 31%
    13:00 +42°C° 0 mm 6 mps 719 mmHg 29%
    14:00 +42°C° 0 mm 6 mps 718 mmHg 27%
    15:00 +42°C° 0 mm 5 mps 718 mmHg 28%
    16:00 +41°C° 0 mm 5 mps 718 mmHg 28%
    17:00 +41°C° 0 mm 4 mps 718 mmHg 29%
    18:00 +38°C° 0 mm 3 mps 718 mmHg 33%
    19:00 +36°C° 0 mm 3 mps 719 mmHg 37%
    20:00 +34°C° 0 mm 2 mps 719 mmHg 40%
    21:00 +34°C° 0 mm 2 mps 720 mmHg 41%
    22:00 +34°C° 0 mm 2 mps 720 mmHg 41%
    23:00 +32°C° 0 mm 2 mps 720 mmHg 42%

    27 October, Friday

    Time Temperature Precipitation Wind Pressure Humidity
    00:00 +31°C° 0 mm 2 mps 720 mmHg 43%
    01:00 +31°C° 0 mm 2 mps 719 mmHg 45%
    02:00 +30°C° 0 mm 2 mps 719 mmHg 47%
    03:00 +29°C° 0 mm 2 mps 719 mmHg 49%
    04:00 +29°C° 0 mm 2 mps 719 mmHg 51%
    05:00 +28°C° 0 mm 2 mps 720 mmHg 52%
    06:00 +30°C° 0 mm 3 mps 720 mmHg 48%
    07:00 +33°C° 0 mm 3 mps 721 mmHg 44%
    08:00 +34°C° 0 mm 4 mps 721 mmHg 40%
    09:00 +36°C° 0 mm 4 mps 721 mmHg 36%
    10:00 +39°C° 0 mm 5 mps 720 mmHg 32%
    11:00 +41°C° 0 mm 6 mps 720 mmHg 28%
    12:00 +41°C° 0 mm 6 mps 719 mmHg 27%
    13:00 +42°C° 0 mm 6 mps 718 mmHg 25%
    14:00 +44°C° 0 mm 6 mps 717 mmHg 24%
    15:00 +43°C° 0 mm 5 mps 716 mmHg 24%
    16:00 +42°C° 0 mm 5 mps 715 mmHg 25%
    17:00 +42°C° 0 mm 5 mps 715 mmHg 25%
    18:00 +40°C° 0 mm 4 mps 716 mmHg 28%
    19:00 +37°C° 0 mm 3 mps 716 mmHg 31%
    20:00 +35°C° 0 mm 2 mps 717 mmHg 34%
    21:00 +35°C° 0 mm 3 mps 717 mmHg 34%
    22:00 +35°C° 0 mm 3 mps 717 mmHg 35%
    23:00 +35°C° 0 mm 4 mps 717 mmHg 36%
    Show more